[[{"header":{"parameterUnit":"m.s-1","parameterCategory":1,"la1":30.2991,"la2":30.254,"lo1":-89.0895,"lo2":-89.0444,"dy":0.0017,"dx":0.0017,"nx":28,"ny":28,"refTime":"2024-05-25T09:00:00:Z","depth":0,"parameterNumber":2,"parameterNumberName":"U-component_of_WINDS"},"data":[0,0,0,0,0,0,0,0,0,0,0,0,0,0,0,0,0,0,0,0,0,0,0,0,0,0,0,0,0,0,0,0,0,0,0,0,0,0,0,0,0,0,0,0,0,0,0,0,0,0,0,0,0,0,0,0,0,0,-1.4427,-1.4427,0,-1.4427,-1.4427,-1.4427,-1.4411,-1.441,-1.441,-1.441,-1.441,-1.441,-1.4411,0,0,0,0,0,0,0,0,0,0,0,0,0,-1.4414,-1.4414,-1.4427,-1.4427,-1.4427,-1.4427,-1.4427,-1.4427,-1.4411,-1.441,-1.441,-1.4409,-1.441,-1.441,-1.4411,0,0,0,0,0,0,0,0,0,0,0,0,0,-1.4417,-1.4414,-1.4427,-1.4419,-1.4418,-1.4427,-1.4427,-1.4427,-1.4411,-1.441,-1.441,-1.4409,-1.441,-1.441,-1.4411,-1.4427,0,0,-1.4413,-1.4413,0,0,0,0,0,0,0,0,-1.4417,-1.4418,-1.442,-1.4419,-1.4419,-1.4418,-1.4422,-1.4427,-1.4411,-1.4414,-1.441,-1.4409,-1.4413,-1.4413,-1.4415,-1.4427,-1.4427,-1.4413,-1.4413,-1.4413,-1.4413,0,0,0,0,0,0,0,-1.4417,-1.4417,-1.4427,-1.442,-1.4419,-1.4416,-1.4415,-1.4423,-1.4417,-1.4413,-1.4412,-1.4413,-1.4413,-1.4414,-1.4415,-1.4427,-1.4413,-1.4413,-1.4414,-1.4414,-1.4454,-1.4454,0,0,0,0,0,0,-1.4417,-1.4417,-1.4427,-1.4427,-1.4416,-1.4416,-1.4416,-1.4419,-1.4417,-1.4416,-1.4413,-1.4412,-1.4414,-1.4414,-1.4415,-1.4433,-1.4413,-1.4414,-1.4414,-1.4453,-1.4454,-1.4455,0,0,0,0,0,0,-1.4417,-1.4418,-1.4427,-1.4422,-1.4423,-1.4417,-1.4421,-1.4419,-1.4421,-1.4417,-1.4415,-1.4416,-1.4413,-1.4414,-1.4424,-1.4433,-1.4414,-1.4415,-1.4452,-1.4453,-1.4454,-1.4471,0,0,0,0,0,0,-1.4417,-1.4418,-1.4424,-1.4422,-1.4423,-1.4436,-1.4421,-1.442,-1.4422,-1.442,-1.4419,-1.4418,-1.4413,-1.4424,-1.4425,-1.4434,-1.4415,-1.4451,-1.4453,-1.4454,-1.447,-1.4473,-1.4475,0,0,0,0,0,-1.4416,-1.4429,-1.4425,-1.4426,-1.443,-1.4437,-1.4437,-1.4431,-1.4423,-1.4429,-1.4426,-1.4418,-1.4433,-1.4425,-1.4426,-1.4435,-1.4451,-1.4452,-1.4454,-1.4469,-1.4472,-1.4475,0,0,0,0,0,0,-1.4432,-1.4429,-1.4424,-1.4436,-1.4437,-1.4434,-1.4441,-1.4435,-1.4438,-1.4436,-1.4428,-1.4428,-1.444,-1.4439,-1.443,-1.4451,-1.444,-1.4442,-1.4451,-1.4454,-1.4457,-1.4456,-1.4416,0,0,0,0,0,-1.4437,-1.4442,-1.4439,-1.445,-1.4451,-1.4446,-1.4449,-1.4444,-1.4445,-1.4445,-1.4443,-1.4444,-1.4449,-1.4452,-1.4456,-1.4471,-1.447,-1.4478,-1.4481,-1.4483,-1.4484,-1.4492,-1.4495,-1.446,-1.446,-1.446,0,0,-1.4447,-1.4446,-1.445,-1.4453,-1.4454,-1.4459,-1.4446,-1.4453,-1.4458,-1.4446,-1.4455,-1.4454,-1.4455,-1.4468,-1.4473,-1.4467,-1.4494,-1.4485,-1.4487,-1.4487,-1.4493,-1.4497,-1.45,-1.4461,-1.4461,-1.446,0,0,-1.4468,-1.4468,-1.4477,-1.4478,-1.4478,-1.4475,-1.4477,-1.4476,-1.4475,-1.4484,-1.4476,-1.4481,-1.449,-1.4491,-1.4492,-1.4515,-1.4508,-1.4517,-1.4531,-1.4538,-1.4541,-1.4543,-1.4551,-1.4553,-1.4519,-1.4519,-1.4519,0,-1.448,-1.4488,-1.4482,-1.449,-1.4492,-1.4482,-1.4492,-1.4493,-1.4495,-1.4496,-1.449,-1.4501,-1.4501,-1.4513,-1.4519,-1.4521,-1.4523,-1.4516,-1.4541,-1.4543,-1.4545,-1.4552,-1.4555,-1.452,-1.452,-1.452,-1.452,0,-1.4503,-1.4509,-1.4517,-1.4519,-1.4522,-1.453,-1.4526,-1.453,-1.4526,-1.4523,-1.4534,-1.4534,-1.4537,-1.4541,-1.4536,-1.4553,-1.4549,-1.4542,-1.453,-1.455,-1.4556,-1.4559,-1.4521,-1.4521,-1.4521,-1.452,0,0,-1.4531,-1.4531,-1.4534,-1.4535,-1.4536,-1.454,-1.4549,-1.4553,-1.4556,-1.4559,-1.4565,-1.4574,-1.4568,-1.457,-1.4566,-1.4572,-1.459,-1.4565,-1.4564,-1.4568,-1.4608,-1.4612,-1.4615,-1.4586,-1.4587,-1.4587,-1.4607,0,-1.4551,-1.4564,-1.456,-1.4574,-1.4579,-1.4572,-1.4579,-1.4581,-1.4579,-1.4584,-1.4583,-1.4588,-1.458,-1.4581,-1.4588,-1.4586,-1.4598,-1.4585,-1.4591,-1.4592,-1.459,-1.4618,-1.4622,-1.4641,-1.461,-1.461,-1.4611,0,-1.4574,-1.4578,-1.4592,-1.4592,-1.4595,-1.4601,-1.4605,-1.461,-1.4612,-1.4611,-1.4614,-1.4609,-1.4617,-1.4607,-1.4619,-1.4611,-1.4613,-1.4613,-1.4614,-1.4613,-1.4601,-1.4617,-1.4647,-1.4649,-1.4615,-1.4614,-1.4614,0,-1.4592,-1.4601,-1.461,-1.4612,-1.4613,-1.4618,-1.4618,-1.462,-1.4623,-1.4626,-1.4628,-1.4633,-1.4635,-1.464,-1.4636,-1.4629,-1.4648,-1.4638,-1.4647,-1.4647,-1.465,-1.4649,-1.468,-1.4654,-1.4654,-1.4654,-1.4654,0,-1.4613,-1.4622,-1.4618,-1.4624,-1.4634,-1.463,-1.464,-1.464,-1.4642,-1.4648,-1.4642,-1.4648,-1.4644,-1.4649,-1.4647,-1.4657,-1.4658,-1.4657,-1.4656,-1.4657,-1.4656,-1.4657,-1.4655,-1.4655,-1.4655,-1.4655,-1.4654,0,-1.4634,-1.4632,-1.4642,-1.4643,-1.4643,-1.465,-1.4651,-1.4656,-1.4655,-1.4663,-1.4665,-1.4663,-1.4669,-1.4667,-1.4674,-1.4672,-1.4685,-1.4683,-1.4684,-1.4682,-1.4691,-1.469,-1.4722,-1.4725,-1.4699,-1.4699,-1.4699,0,-1.4647,-1.4653,-1.4655,-1.4658,-1.4659,-1.4665,-1.4669,-1.4665,-1.4669,-1.4673,-1.4678,-1.4684,-1.4688,-1.4699,-1.4698,-1.4703,-1.4701,-1.4712,-1.4701,-1.4702,-1.4699,-1.4698,-1.4699,-1.4713,-1.4713,-1.4713,-1.4714,0,-1.4669,-1.4668,-1.4673,-1.4677,-1.4682,-1.4685,-1.4688,-1.4692,-1.4689,-1.4693,-1.47,-1.4703,-1.471,-1.4716,-1.4721,-1.4722,-1.4717,-1.4717,-1.4719,-1.4719,-1.4719,-1.4718,-1.4687,-1.4716,-1.4716,-1.4716,-1.4715,-1.4715,-1.4685,-1.4691,-1.4693,-1.4699,-1.4701,-1.4704,-1.4709,-1.4709,-1.4715,-1.472,-1.4719,-1.4726,-1.4729,-1.4735,-1.4737,-1.4743,-1.4738,-1.4742,-1.4742,-1.4743,-1.4743,-1.472,-1.4744,-1.4744,-1.4744,-1.4744,-1.4744,0,-1.4706,-1.4708,-1.4713,-1.4718,-1.4722,-1.4718,-1.4722,-1.4726,-1.4732,-1.4736,-1.474,-1.4748,-1.4754,-1.4755,-1.476,-1.4765,-1.4763,-1.4766,-1.4765,-1.4765,-1.4747,-1.4744,-1.4768,-1.4768,-1.4768,-1.4768,-1.4768,-1.4768,-1.4718,-1.4727,-1.4726,-1.4737,-1.4738,-1.4745,-1.4748,-1.4751,-1.4753,-1.4762,-1.4767,-1.4768,-1.477,-1.4776,-1.4781,-1.4781,-1.4783,-1.4787,-1.4787,-1.4769,-1.4767,-1.4764,-1.4761,-1.4788,-1.4788,-1.4804,-1.4804,-1.4804]},{"header":{"parameterUnit":"m.s-1","parameterCategory":1,"la1":30.2991,"la2":30.254,"lo1":-89.0895,"lo2":-89.0444,"dy":0.0017,"dx":0.0017,"nx":28,"ny":28,"refTime":"2024-05-25T09:00:00:Z","depth":0,"parameterNumber":3,"parameterNumberName":"V-component_of_WINDS"},"data":[0,0,0,0,0,0,0,0,0,0,0,0,0,0,0,0,0,0,0,0,0,0,0,0,0,0,0,0,0,0,0,0,0,0,0,0,0,0,0,0,0,0,0,0,0,0,0,0,0,0,0,0,0,0,0,0,0,0,5.5852,5.5852,0,5.5808,5.5808,5.5807,5.5767,5.5766,5.5766,5.5766,5.5717,5.5716,5.5715,0,0,0,0,0,0,0,0,0,0,0,0,0,5.5899,5.5899,5.5852,5.5852,5.5851,5.5808,5.5808,5.5807,5.5767,5.5766,5.5766,5.5765,5.5717,5.5716,5.5715,0,0,0,0,0,0,0,0,0,0,0,0,0,5.587,5.5899,5.5853,5.5826,5.5823,5.5809,5.5808,5.5807,5.5767,5.5766,5.5766,5.5765,5.5717,5.5716,5.5715,5.5721,0,0,5.5711,5.571,0,0,0,0,0,0,0,0,5.5871,5.5868,5.5831,5.5828,5.5825,5.5793,5.5806,5.5778,5.5767,5.5788,5.5766,5.5765,5.5742,5.5739,5.5732,5.5719,5.5717,5.5711,5.571,5.571,5.5709,0,0,0,0,0,0,0,5.5873,5.5869,5.5835,5.583,5.5827,5.5816,5.5811,5.5801,5.577,5.5787,5.5784,5.5779,5.5741,5.5733,5.5731,5.5716,5.5711,5.571,5.5709,5.5708,5.5707,5.5708,0,0,0,0,0,0,5.588,5.5871,5.5836,5.5834,5.5847,5.5816,5.581,5.5804,5.577,5.5764,5.578,5.5777,5.5736,5.5732,5.5729,5.5735,5.571,5.5708,5.5708,5.5707,5.5708,5.5708,0,0,0,0,0,0,5.5881,5.5877,5.5838,5.5852,5.5846,5.5816,5.5809,5.5803,5.5796,5.5765,5.5759,5.5778,5.5735,5.5731,5.5724,5.5733,5.5708,5.5707,5.5706,5.5707,5.5708,5.5747,0,0,0,0,0,0,5.5883,5.5878,5.588,5.5852,5.5845,5.5835,5.5809,5.5803,5.5794,5.5791,5.5762,5.5756,5.5734,5.5726,5.5723,5.573,5.5706,5.5705,5.5706,5.5708,5.5745,5.5749,5.5753,0,0,0,0,0,5.5884,5.5892,5.5881,5.5877,5.5848,5.5835,5.5831,5.5807,5.5795,5.5797,5.5778,5.5757,5.5732,5.5726,5.5722,5.5729,5.5704,5.5706,5.5708,5.5743,5.5748,5.5753,0,0,0,0,0,0,5.5921,5.5888,5.5875,5.5874,5.5858,5.5829,5.5831,5.5814,5.58,5.5797,5.5766,5.576,5.5757,5.5742,5.5735,5.5734,5.5716,5.5717,5.5744,5.5749,5.5753,5.5756,5.5705,0,0,0,0,0,5.5929,5.5922,5.5893,5.5895,5.5888,5.5861,5.5854,5.5837,5.5819,5.5812,5.5791,5.5773,5.5762,5.5754,5.5742,5.5743,5.5736,5.5746,5.575,5.5754,5.5755,5.5755,5.5759,5.5714,5.5714,5.5714,0,0,5.5945,5.5926,5.5923,5.5902,5.5888,5.5881,5.5855,5.5849,5.5843,5.581,5.5803,5.5788,5.5766,5.5764,5.5761,5.5751,5.5766,5.5756,5.5759,5.5758,5.5757,5.5761,5.5765,5.5715,5.5715,5.5715,0,0,5.5971,5.5956,5.5957,5.5943,5.5923,5.5905,5.5905,5.5879,5.5868,5.5861,5.5836,5.5829,5.5809,5.5795,5.5785,5.5808,5.5789,5.5804,5.5826,5.5826,5.583,5.5833,5.5842,5.5845,5.5805,5.5805,5.5805,0,5.5993,5.5983,5.5959,5.5954,5.5946,5.5917,5.5917,5.5905,5.5881,5.5875,5.5865,5.584,5.5823,5.5818,5.5824,5.5816,5.5816,5.5807,5.5832,5.5834,5.5837,5.5845,5.5848,5.5807,5.5807,5.5807,5.5807,0,5.6012,5.6005,5.6008,5.5987,5.5979,5.5976,5.5951,5.5946,5.593,5.5913,5.5907,5.5886,5.5869,5.5866,5.585,5.5859,5.5853,5.5838,5.5818,5.5844,5.585,5.5853,5.581,5.581,5.5809,5.5809,0,0,5.6058,5.6025,5.6027,5.6018,5.5993,5.5987,5.5984,5.5969,5.5965,5.595,5.5946,5.5931,5.5917,5.5906,5.5888,5.5888,5.5909,5.5873,5.5872,5.588,5.5918,5.593,5.5934,5.5896,5.5897,5.5897,5.592,0,5.608,5.6074,5.6053,5.6052,5.6046,5.602,5.6017,5.6002,5.5986,5.5978,5.596,5.5951,5.5932,5.5926,5.5925,5.5906,5.5916,5.5904,5.5892,5.5892,5.5899,5.5937,5.5949,5.5972,5.5922,5.5923,5.5923,0,5.6105,5.6093,5.6093,5.607,5.6067,5.6065,5.605,5.6043,5.6025,5.6014,5.6003,5.5983,5.5978,5.5961,5.5953,5.5946,5.594,5.593,5.593,5.5928,5.5909,5.5936,5.5978,5.5982,5.5927,5.5926,5.5926,0,5.614,5.6123,5.6121,5.6114,5.6088,5.6087,5.6076,5.6057,5.605,5.6037,5.6032,5.6018,5.601,5.6,5.5977,5.5966,5.5972,5.5953,5.5963,5.5963,5.5965,5.5965,5.6007,5.5961,5.5961,5.5961,5.596,0,5.6167,5.6167,5.6137,5.6136,5.6136,5.6111,5.6112,5.6098,5.6083,5.6078,5.6054,5.605,5.602,5.6012,5.5994,5.5991,5.5987,5.5978,5.5973,5.598,5.5982,5.5976,5.5974,5.5961,5.5961,5.5961,5.5961,0,5.6205,5.6184,5.6181,5.6157,5.6151,5.6152,5.6131,5.6129,5.6113,5.6107,5.6104,5.6078,5.6069,5.6045,5.6028,5.6016,5.6018,5.6009,5.6024,5.6021,5.6033,5.6032,5.6072,5.6077,5.6028,5.6028,5.6029,0,5.6223,5.6224,5.62,5.6196,5.6187,5.618,5.6173,5.6149,5.6143,5.6124,5.6124,5.6112,5.6102,5.6087,5.6066,5.6054,5.6044,5.6059,5.6042,5.605,5.6045,5.6046,5.6046,5.6063,5.6064,5.6064,5.6065,0,5.6259,5.6249,5.6241,5.623,5.6223,5.6212,5.62,5.6198,5.6171,5.6165,5.6156,5.6148,5.6132,5.6121,5.6105,5.6093,5.6074,5.6071,5.6072,5.6079,5.6089,5.6085,5.6035,5.607,5.6069,5.6069,5.6068,5.6068,5.6288,5.6288,5.6272,5.6263,5.6252,5.6242,5.624,5.6224,5.6216,5.6202,5.6188,5.618,5.6163,5.6141,5.613,5.6123,5.6113,5.6116,5.6116,5.6117,5.6121,5.609,5.612,5.612,5.612,5.6119,5.6119,0,5.6322,5.6311,5.6304,5.6289,5.6283,5.6268,5.6254,5.625,5.6244,5.623,5.6221,5.6211,5.62,5.618,5.6167,5.6166,5.6157,5.6163,5.6163,5.6161,5.613,5.613,5.6171,5.6171,5.6171,5.6171,5.6171,5.6171,5.634,5.6339,5.6327,5.6321,5.6309,5.6302,5.6296,5.6287,5.6276,5.6266,5.6258,5.6245,5.6228,5.6215,5.6205,5.6199,5.6196,5.6205,5.6197,5.6168,5.6163,5.6158,5.6158,5.6204,5.6204,5.6228,5.6228,5.6229]}]]